DW4707 Campi Bisenzio - Firenze IT current weather conditions

sailwx.info

Last reported at 2014-Dec-07 14:16 UTC.
Time now 2014-Dec-22 17:47 UTC

Location: N 43°50' E 011°08'.
View on Google Maps.

See reports from other nearby stations

  
Tides and Currents Weather Stations Pressure Air Temp Water Temp Dewpoint Dewpoint Depression Visibility Wind Speed Wind Dir Waves Ship Positions
date/time (UTC)wind fromknots sea level pressurealtimeterstation pressurevisibilityair tempwater tempwave heightnotes
2014-Dec-22 16:47 270 7.2
2014-Dec-22 16:37 225 7.8
2014-Dec-22 16:27 186 7.8
2014-Dec-22 16:17 202 7.8
2014-Dec-22 16:07 180 7.8
2014-Dec-22 15:57 180 8.3
2014-Dec-22 15:47 180 8.3
2014-Dec-22 15:37 180 8.3
2014-Dec-22 15:27 270 8.9
2014-Dec-22 15:17 267 8.9
2014-Dec-22 15:07 248 8.9
2014-Dec-22 14:57 248 9.4
2014-Dec-22 14:47 270 9.4
2014-Dec-22 14:37 248 10.0
2014-Dec-22 14:27 045 10.0
2014-Dec-22 14:17 10.0
2014-Dec-22 14:07 315 9.4
2014-Dec-22 13:57 315 9.4
2014-Dec-22 13:47 202 9.4
2014-Dec-22 13:37 202 9.4
2014-Dec-22 13:27 217 9.4
2014-Dec-22 13:17 291 9.4
2014-Dec-22 13:07 158 8.9
2014-Dec-22 12:57 190 8.9
2014-Dec-22 12:47 180 8.3
2014-Dec-22 12:37 270 8.3
2014-Dec-22 12:27 202 8.3
2014-Dec-22 12:17 268 8.3
2014-Dec-22 12:07 045 8.3
2014-Dec-22 11:57 112 8.3
2014-Dec-22 11:47 202 8.3
2014-Dec-22 11:37 022 7.8
2014-Dec-22 11:27 060 7.8
2014-Dec-22 11:17 202 7.8
2014-Dec-22 11:07 068 7.8
2014-Dec-22 10:57 299 7.8
2014-Dec-22 10:47 090 7.2
2014-Dec-22 10:37 068 7.2
2014-Dec-22 10:27 068 7.2
2014-Dec-22 10:17 068 6.7
2014-Dec-22 10:07 068 6.7
2014-Dec-22 09:57 045 6.7
2014-Dec-22 09:47 105 6.1
2014-Dec-22 09:37 202 6.1
2014-Dec-22 09:27 211 5.6
2014-Dec-22 09:17 270 5.6
2014-Dec-22 09:07 112 5.6
2014-Dec-22 08:57 190 5.6
2014-Dec-22 08:47 180 5.6
2014-Dec-22 08:37 4.4
2014-Dec-22 08:27 4.4
2014-Dec-22 08:17 4.4
2014-Dec-22 08:07 022 3.9
2014-Dec-22 07:57 135 3.3
2014-Dec-22 07:47 135 3.3
2014-Dec-22 07:37 202 3.3
2014-Dec-22 07:27 158 3.3
2014-Dec-22 07:17 158 3.3
2014-Dec-22 07:07 158 3.3
2014-Dec-22 06:57 135 3.3
2014-Dec-22 06:47 135 3.3
2014-Dec-22 06:37 022 3.3
2014-Dec-22 06:27 135 3.3
2014-Dec-22 06:17 112 3.3
2014-Dec-22 06:07 180 3.3
2014-Dec-22 05:57 225 3.3
2014-Dec-22 05:47 248 3.3
2014-Dec-22 05:37 248 3.3
2014-Dec-22 05:27 292 3.3
2014-Dec-22 05:17 248 3.3
2014-Dec-22 05:07 270 3.3
2014-Dec-22 04:57 270 3.3
2014-Dec-22 04:47 225 3.3
2014-Dec-22 04:37 225 3.3
2014-Dec-22 04:27 202 3.3
2014-Dec-22 04:17 180 3.3
2014-Dec-22 04:07 158 3.3
2014-Dec-22 03:57 202 3.3
2014-Dec-22 03:47 202 3.9
2014-Dec-22 03:37 202 3.9
2014-Dec-22 03:27 202 3.9
2014-Dec-22 03:17 202 3.9
2014-Dec-22 03:07 202 3.9
2014-Dec-22 02:57 202 3.9
2014-Dec-22 02:47 202 3.9
2014-Dec-22 02:37 202 4.4
2014-Dec-22 02:27 202 4.4
2014-Dec-22 02:17 200 4.4
2014-Dec-22 02:07 202 4.4
2014-Dec-22 01:57 202 4.4
2014-Dec-22 01:47 202 4.4
2014-Dec-22 01:37 202 4.4
2014-Dec-22 01:27 180 5.0
2014-Dec-22 01:17 180 5.0
2014-Dec-22 01:07 180 5.0
2014-Dec-22 00:57 180 5.0
2014-Dec-22 00:47 180 5.0
2014-Dec-22 00:37 180 5.0
2014-Dec-22 00:27 180 5.0
2014-Dec-22 00:17 202 5.6
2014-Dec-22 00:07 158 5.6
2014-Dec-21 23:57 248 5.6
2014-Dec-21 23:47 248 5.6
2014-Dec-21 23:37 248 5.6
2014-Dec-21 23:27 248 5.6
2014-Dec-21 23:17 248 6.1
2014-Dec-21 23:07 248 6.1
2014-Dec-21 22:57 225 6.1
2014-Dec-21 22:47 248 6.1
2014-Dec-21 22:37 202 6.7
2014-Dec-21 22:27 225 6.7
2014-Dec-21 22:17 225 6.7
2014-Dec-21 22:07 225 6.7
2014-Dec-21 21:57 225 6.7
2014-Dec-21 21:47 225 7.2
2014-Dec-21 21:37 135 7.2
2014-Dec-21 21:27 045 7.2
2014-Dec-21 21:17 045 7.2
2014-Dec-21 21:07 045 7.2
2014-Dec-21 20:57 158 7.2
2014-Dec-21 20:47 158 7.8
2014-Dec-21 20:37 112 7.8
2014-Dec-21 20:27 338 7.8
2014-Dec-21 20:17 338 7.8
2014-Dec-21 20:07 338 8.3
2014-Dec-21 19:57 338 8.3
2014-Dec-21 19:47 8.3
2014-Dec-21 19:37 338 8.9
2014-Dec-21 19:27 270 8.9
2014-Dec-21 19:17 202 8.9
2014-Dec-21 19:07 202 8.9
2014-Dec-21 18:57 252 9.4
2014-Dec-21 18:47 248 9.4
2014-Dec-21 18:37 248 9.4
2014-Dec-21 18:27 225 9.4
2014-Dec-21 18:07 270 10.0
2014-Dec-21 17:57 248 10.6
2014-Dec-21 17:17 11.1
2014-Dec-21 17:07 11.1
2014-Dec-21 16:57 11.7
2014-Dec-21 16:47 022 11.7
2014-Dec-21 16:37 022 11.7
2014-Dec-21 16:27 022 11.7
2014-Dec-21 16:17 135 11.7
2014-Dec-21 16:07 135 12.2
2014-Dec-21 15:57 135 12.8
2014-Dec-21 15:47 135 12.8
2014-Dec-21 15:37 135 13.3
2014-Dec-21 15:27 135 13.3
2014-Dec-21 15:17 135 13.9
2014-Dec-21 15:07 135 13.9
2014-Dec-21 14:57 135 14.4
2014-Dec-21 14:47 202 14.4
2014-Dec-21 14:37 180 14.4
2014-Dec-21 14:27 202 15.0
2014-Dec-21 14:17 155 15.0
2014-Dec-21 14:07 135 15.0
2014-Dec-21 13:57 224 15.0
2014-Dec-21 13:47 032 15.0
2014-Dec-21 13:37 158 14.4
2014-Dec-21 13:27 225 14.4
2014-Dec-21 13:17 036 14.4
2014-Dec-21 13:07 045 14.4
2014-Dec-21 12:57 292 14.4
2014-Dec-21 12:47 338 13.9
2014-Dec-21 12:37 338 13.9
2014-Dec-21 12:27 13.9
2014-Dec-21 12:17 13.9
2014-Dec-21 12:07 158 13.9
2014-Dec-21 11:57 003 13.3
2014-Dec-21 11:47 338 13.3
2014-Dec-21 11:37 13.3
2014-Dec-21 11:27 202 12.8
2014-Dec-21 11:17 158 12.8
2014-Dec-21 11:07 12.8
2014-Dec-21 10:57 022 12.8
2014-Dec-21 10:47 089 12.2
2014-Dec-21 10:37 022 12.2
2014-Dec-21 10:27 068 12.2
2014-Dec-21 10:17 111 12.2
2014-Dec-21 10:07 022 12.2
2014-Dec-21 09:57 180 11.7
2014-Dec-21 09:47 033 11.7
2014-Dec-21 09:37 022 11.1
2014-Dec-21 09:27 11.1
2014-Dec-21 09:17 026 10.6
2014-Dec-21 09:07 022 10.6
2014-Dec-21 08:57 022 10.0
2014-Dec-21 08:47 045 10.0
2014-Dec-21 08:37 022 9.4
2014-Dec-21 08:27 022 8.9
2014-Dec-21 08:17 022 8.9
2014-Dec-21 08:07 202 8.9
2014-Dec-21 07:57 135 8.3
2014-Dec-21 07:47 220 8.3
2014-Dec-21 07:37 292 8.3
2014-Dec-21 07:27 338 8.3
2014-Dec-21 07:17 053 8.3
2014-Dec-21 07:07 022 8.3
2014-Dec-21 06:57 202 8.3
2014-Dec-21 06:47 315 8.3
2014-Dec-21 06:37 202 8.3
2014-Dec-21 06:27 202 8.9
2014-Dec-21 06:17 180 8.9
2014-Dec-21 06:07 045 8.9
2014-Dec-21 05:57 180 9.4
2014-Dec-21 05:47 292 9.4
2014-Dec-21 05:37 292 10.0
2014-Dec-21 05:27 292 10.0
2014-Dec-21 05:17 270 10.0
2014-Dec-21 05:07 270 10.6
2014-Dec-21 04:47 292 10.6
2014-Dec-21 04:37 292 10.6
2014-Dec-21 04:27 292 10.6
2014-Dec-21 04:07 292 10.6
2014-Dec-21 03:57 292 10.6
2014-Dec-21 03:47 292 11.1
2014-Dec-21 03:37 248 11.1
2014-Dec-21 03:27 292 11.1
2014-Dec-21 03:17 292 11.1
2014-Dec-21 03:07 292 11.1
2014-Dec-21 02:57 292 11.1
2014-Dec-21 02:47 292 11.1
2014-Dec-21 02:37 292 11.1
2014-Dec-21 02:27 292 11.1
2014-Dec-21 02:17 292 11.1
2014-Dec-21 02:07 202 11.1
2014-Dec-21 01:57 202 11.1
2014-Dec-21 01:47 202 11.1
2014-Dec-21 01:37 202 11.1
2014-Dec-21 01:27 180 11.1
2014-Dec-21 01:17 068 11.1
2014-Dec-21 01:07 180 11.1
2014-Dec-21 00:57 202 11.1
2014-Dec-21 00:47 248 11.1
2014-Dec-21 00:37 315 11.1
2014-Dec-21 00:27 315 11.1
2014-Dec-21 00:17 008 11.1
2014-Dec-21 00:07 11.1
2014-Dec-20 23:56 11.7
2014-Dec-20 23:46 11.7
2014-Dec-20 23:36 11.7
2014-Dec-20 23:26 11.1
2014-Dec-20 23:16 11.1
2014-Dec-20 23:06 11.1
2014-Dec-20 22:56 11.1
2014-Dec-20 22:46 11.7
2014-Dec-20 22:36 11.7
2014-Dec-20 22:26 11.7
2014-Dec-20 22:16 292 11.7
2014-Dec-20 22:06 292 11.7
2014-Dec-20 21:56 135 11.7
2014-Dec-20 21:46 022 11.1
2014-Dec-20 21:36 11.1
2014-Dec-20 21:26 11.1
2014-Dec-20 21:16 225 11.1
2014-Dec-20 21:06 225 11.1
2014-Dec-20 20:56 202 11.1
2014-Dec-20 20:46 180 11.7
2014-Dec-20 20:36 180 11.7
2014-Dec-20 20:26 158 11.7
2014-Dec-20 20:16 225 11.7
2014-Dec-20 20:06 225 11.7
2014-Dec-20 19:56 225 11.7
2014-Dec-20 19:46 225 11.7
2014-Dec-20 19:36 225 11.7
2014-Dec-20 19:26 225 12.2
2014-Dec-20 19:16 225 11.7
2014-Dec-20 19:06 225 11.7
2014-Dec-20 18:56 225 12.2
2014-Dec-20 18:46 225 12.2
2014-Dec-20 18:36 225 12.2
2014-Dec-20 18:26 202 12.2
2014-Dec-20 18:16 202 12.2
2014-Dec-20 18:06 202 12.2
2014-Dec-20 17:56 022 12.2
2014-Dec-20 17:46 022 12.2
2014-Dec-20 17:36 022 12.2
2014-Dec-20 17:26 022 12.8
2014-Dec-20 17:16 202 12.2
2014-Dec-20 17:06 180 12.2